,,,PA_Meas_PMT16A,,PR_Meas_QMR101_102,,RH_Meas_QMH101,,SR_Meas_QMS101,,TA_Meas_QMH101,,GenWind,,GenWind,
date,time,status,PA,status,PR,status,RH,status,SR,status,TA,status,DirAvg,status,SpdAvg,
2008-08-28, 00:00:05,VALID,1009.5,VALID,0,VALID,96.0159,VALID,0,VALID,23.4017,VALID,18,VALID,0,
2008-08-28, 00:01:05,VALID,1009.51,VALID,0,VALID,96.0311,VALID,0,VALID,23.4407,VALID,18,VALID,0,
2008-08-28, 00:02:05,VALID,1009.51,VALID,0,VALID,96.0387,VALID,0,VALID,23.4212,VALID,18,VALID,0,
2008-08-28, 00:03:05,VALID,1009.5,VALID,0,VALID,96.0235,VALID,0,VALID,23.4602,VALID,18,VALID,0,
2008-08-28, 00:04:05,VALID,1009.51,VALID,0,VALID,96.0235,VALID,0,VALID,23.4602,VALID,18,VALID,0,
2008-08-28, 00:05:05,VALID,1009.52,VALID,0,VALID,96.0235,VALID,0,VALID,23.4407,VALID,18,VALID,0,
2008-08-28, 00:06:05,VALID,1009.52,VALID,0,VALID,96.0387,VALID,0,VALID,23.4602,VALID,18,VALID,0,
2008-08-28, 00:07:05,VALID,1009.57,VALID,0,VALID,96.0235,VALID,0,VALID,23.4797,VALID,18,VALID,0,
2008-08-28, 00:08:05,VALID,1009.55,VALID,0,VALID,96.0235,VALID,0,VALID,23.5204,VALID,18,VALID,0,
2008-08-28, 00:09:05,VALID,1009.59,VALID,0,VALID,96.0159,VALID,0,VALID,23.5186,VALID,18,VALID,0,
2008-08-28, 00:10:05,VALID,1009.58,VALID,0,VALID,96.0464,VALID,0,VALID,23.5576,VALID,18,VALID,0,
2008-08-28, 00:11:05,VALID,1009.6,VALID,0,VALID,96.0159,VALID,0,VALID,23.5771,VALID,18,VALID,0,
2008-08-28, 00:12:05,VALID,1009.63,VALID,0,VALID,96.0159,VALID,0,VALID,23.5753,VALID,321,VALID,0,
2008-08-28, 00:13:05,VALID,1009.65,VALID,0,VALID,96.0082,VALID,0,VALID,23.5771,VALID,230,VALID,0,
2008-08-28, 00:14:05,VALID,1009.67,VALID,0,VALID,96.0082,VALID,0,VALID,23.5771,VALID,236,VALID,0,
2008-08-28, 00:15:05,VALID,1009.68,VALID,0,VALID,96.0082,VALID,0,VALID,23.6179,VALID,232,VALID,0.342578,
2008-08-28, 00:16:05,VALID,1009.68,VALID,0,VALID,96.0159,VALID,0,VALID,23.6143,VALID,230,VALID,0.555078,
2008-08-28, 00:17:05,VALID,1009.67,VALID,0,VALID,96.0159,VALID,0.105969,VALID,23.6338,VALID,227,VALID,0.428125,
2008-08-28, 00:18:05,VALID,1009.67,VALID,0,VALID,96.0082,VALID,0.105969,VALID,23.6532,VALID,244,VALID,0.180469,
2008-08-28, 00:19:05,VALID,1009.68,VALID,0,VALID,96.0082,VALID,0,VALID,23.632,VALID,244,VALID,0.212109,
2008-08-28, 00:20:05,VALID,1009.68,VALID,0,VALID,96.0006,VALID,0.105969,VALID,23.655,VALID,244,VALID,0.132422,
2008-08-28, 00:21:05,VALID,1009.67,VALID,0,VALID,96.0082,VALID,0,VALID,23.6727,VALID,244,VALID,0.121875,
2008-08-28, 00:22:05,VALID,1009.67,VALID,0,VALID,96.0006,VALID,0.105969,VALID,23.6727,VALID,244,VALID,0,
2008-08-28, 00:23:05,VALID,1009.68,VALID,0,VALID,96.0082,VALID,0.105969,VALID,23.6709,VALID,244,VALID,0.117969,
2008-08-28, 00:24:05,VALID,1009.65,VALID,0,VALID,95.9854,VALID,0,VALID,23.733,VALID,244,VALID,0.372266,
2008-08-28, 00:25:05,VALID,1009.69,VALID,0,VALID,95.9854,VALID,0.105969,VALID,23.7117,VALID,245,VALID,0.40625,
2008-08-28, 00:26:05,VALID,1009.67,VALID,0,VALID,95.9854,VALID,0.105969,VALID,23.7312,VALID,245,VALID,0.492578,
2008-08-28, 00:27:05,VALID,1009.66,VALID,0,VALID,95.9854,VALID,0.105969,VALID,23.7312,VALID,10,VALID,0.480859,
2008-08-28, 00:28:05,VALID,1009.63,VALID,0,VALID,95.9777,VALID,0.105969,VALID,23.7117,VALID,10,VALID,0.346875,
2008-08-28, 00:29:05,VALID,1009.67,VALID,0,VALID,95.9854,VALID,0.105969,VALID,23.6727,VALID,10,VALID,0.150781,
2008-08-28, 00:30:05,VALID,1009.65,VALID,0,VALID,95.993,VALID,0.105969,VALID,23.7312,VALID,10,VALID,0,
2008-08-28, 00:31:05,VALID,1009.61,VALID,0,VALID,95.9854,VALID,0,VALID,23.7543,VALID,10,VALID,0,
2008-08-28, 00:32:05,VALID,1009.64,VALID,0,VALID,95.9854,VALID,0,VALID,23.733,VALID,10,VALID,0,
2008-08-28, 00:33:05,VALID,1009.63,VALID,0,VALID,95.9854,VALID,0,VALID,23.733,VALID,10,VALID,0,
2008-08-28, 00:34:05,VALID,1009.61,VALID,0,VALID,95.9854,VALID,0,VALID,23.7135,VALID,10,VALID,0.211719,
2008-08-28, 00:35:05,VALID,1009.6,VALID,0,VALID,95.993,VALID,0,VALID,23.7348,VALID,10,VALID,0.291406,
2008-08-28, 00:36:05,VALID,1009.57,VALID,0,VALID,96.0006,VALID,0,VALID,23.7348,VALID,10,VALID,0.0796875,
2008-08-28, 00:37:05,VALID,1009.56,VALID,0,VALID,95.9777,VALID,0,VALID,23.733,VALID,10,VALID,0,
2008-08-28, 00:38:05,VALID,1009.56,VALID,0,VALID,95.993,VALID,0,VALID,23.7543,VALID,10,VALID,0,
2008-08-28, 00:39:05,VALID,1009.53,VALID,0,VALID,96.0006,VALID,0,VALID,23.733,VALID,10,VALID,0,
2008-08-28, 00:40:05,VALID,1009.52,VALID,0,VALID,96.0006,VALID,0,VALID,23.733,VALID,10,VALID,0,
2008-08-28, 00:41:05,VALID,1009.5,VALID,0,VALID,95.9777,VALID,0,VALID,23.733,VALID,10,VALID,0,
2008-08-28, 00:42:05,VALID,1009.47,VALID,0,VALID,96.0082,VALID,0,VALID,23.733,VALID,10,VALID,0.248437,
2008-08-28, 00:43:05,VALID,1009.46,VALID,0,VALID,95.9854,VALID,0,VALID,23.694,VALID,10,VALID,0.117578,
2008-08-28, 00:44:05,VALID,1009.44,VALID,0,VALID,95.9854,VALID,0,VALID,23.694,VALID,10,VALID,0.0707031,
2008-08-28, 00:45:05,VALID,1009.42,VALID,0,VALID,95.9701,VALID,0,VALID,23.7348,VALID,10,VALID,0,
2008-08-28, 00:46:05,VALID,1009.41,VALID,0,VALID,95.993,VALID,0.105969,VALID,23.7312,VALID,10,VALID,0,
2008-08-28, 00:47:05,VALID,1009.43,VALID,0,VALID,95.9701,VALID,0.105969,VALID,23.7117,VALID,10,VALID,0,
2008-08-28, 00:48:05,VALID,1009.39,VALID,0,VALID,96.0006,VALID,0,VALID,23.733,VALID,10,VALID,0,
2008-08-28, 00:49:05,VALID,1009.38,VALID,0,VALID,95.9777,VALID,0.105969,VALID,23.772,VALID,10,VALID,0,
2008-08-28, 00:50:05,VALID,1009.36,VALID,0,VALID,95.993,VALID,0,VALID,23.7117,VALID,10,VALID,0,
2008-08-28, 00:51:05,VALID,1009.38,VALID,0,VALID,95.993,VALID,0,VALID,23.6727,VALID,10,VALID,0,
2008-08-28, 00:52:05,VALID,1009.33,VALID,0,VALID,95.993,VALID,0.105969,VALID,23.7135,VALID,10,VALID,0,
2008-08-28, 00:53:05,VALID,1009.33,VALID,0,VALID,95.993,VALID,0.105969,VALID,23.6922,VALID,10,VALID,0,
2008-08-28, 00:54:05,VALID,1009.35,VALID,0,VALID,95.9854,VALID,0,VALID,23.7135,VALID,10,VALID,0,
2008-08-28, 00:55:05,VALID,1009.35,VALID,0,VALID,95.993,VALID,0,VALID,23.733,VALID,10,VALID,0.20625,
2008-08-28, 00:56:05,VALID,1009.35,VALID,0,VALID,96.0159,VALID,0,VALID,23.7525,VALID,9,VALID,0.421094,
2008-08-28, 00:57:05,VALID,1009.36,VALID,0,VALID,96.0006,VALID,0,VALID,23.733,VALID,2,VALID,0.383984,
2008-08-28, 00:58:05,VALID,1009.38,VALID,0,VALID,96.0006,VALID,0,VALID,23.7312,VALID,354,VALID,0.260156,
2008-08-28, 00:59:05,VALID,1009.42,VALID,0,VALID,95.9777,VALID,0.105969,VALID,23.7896,VALID,354,VALID,0.176563,
2008-08-28, 01:00:05,VALID,1009.45,VALID,0,VALID,96.0006,VALID,0,VALID,23.8304,VALID,299,VALID,0.340234,
2008-08-28, 01:01:05,VALID,1009.43,VALID,0,VALID,95.9777,VALID,0.105969,VALID,23.8694,VALID,240,VALID,0.578906,
2008-08-28, 01:02:05,VALID,1009.42,VALID,0,VALID,95.9854,VALID,0,VALID,23.8871,VALID,245,VALID,0.336719,
2008-08-28, 01:03:05,VALID,1009.43,VALID,0,VALID,95.9701,VALID,0.105969,VALID,23.9065,VALID,287,VALID,0.489844,
2008-08-28, 01:04:05,VALID,1009.41,VALID,0,VALID,95.9777,VALID,0,VALID,23.9065,VALID,319,VALID,0.558594,
2008-08-28, 01:05:05,VALID,1009.36,VALID,0,VALID,95.9701,VALID,0,VALID,23.9278,VALID,319,VALID,0.856641,
2008-08-28, 01:06:05,VALID,1009.33,VALID,0,VALID,95.9549,VALID,0.105969,VALID,23.926,VALID,336,VALID,0.231641,
2008-08-28, 01:07:05,VALID,1009.31,VALID,0,VALID,95.9549,VALID,0.105969,VALID,23.926,VALID,9,VALID,0.466016,
2008-08-28, 01:08:05,VALID,1009.29,VALID,0,VALID,95.9472,VALID,0,VALID,23.926,VALID,40,VALID,0.737109,
2008-08-28, 01:09:05,VALID,1009.27,VALID,0,VALID,95.9549,VALID,0.105969,VALID,23.9473,VALID,40,VALID,0.547266,
2008-08-28, 01:10:05,VALID,1009.26,VALID,0,VALID,95.932,VALID,0,VALID,23.926,VALID,40,VALID,0.328125,
2008-08-28, 01:11:05,VALID,1009.25,VALID,0,VALID,95.932,VALID,0,VALID,23.9455,VALID,40,VALID,0.314453,
2008-08-28, 01:12:05,VALID,1009.22,VALID,0,VALID,95.9167,VALID,0.105969,VALID,23.9065,VALID,40,VALID,0.183203,
2008-08-28, 01:13:05,VALID,1009.21,VALID,0,VALID,95.9396,VALID,0.105969,VALID,23.9065,VALID,40,VALID,0.0671875,
2008-08-28, 01:14:05,VALID,1009.15,VALID,0,VALID,95.9396,VALID,0.105969,VALID,23.8871,VALID,40,VALID,0.0660156,
2008-08-28, 01:15:05,VALID,1009.16,VALID,0,VALID,95.9472,VALID,0.105969,VALID,23.9065,VALID,40,VALID,0,
2008-08-28, 01:16:05,VALID,1009.11,VALID,0,VALID,95.9625,VALID,0,VALID,23.9084,VALID,40,VALID,0,
2008-08-28, 01:17:05,VALID,1009.11,VALID,0,VALID,95.9396,VALID,0,VALID,23.9278,VALID,320,VALID,0.348437,
2008-08-28, 01:18:05,VALID,1009.13,VALID,0,VALID,95.9472,VALID,0,VALID,23.9668,VALID,270,VALID,0.440625,
2008-08-28, 01:19:05,VALID,1009.12,VALID,0,VALID,95.9472,VALID,0,VALID,23.9863,VALID,245,VALID,0.194531,
2008-08-28, 01:20:05,VALID,1009.11,VALID,0,VALID,95.9549,VALID,0,VALID,24.0058,VALID,245,VALID,0.0367187,
2008-08-28, 01:21:05,VALID,1009.1,VALID,0,VALID,95.9396,VALID,0,VALID,24.0058,VALID,280,VALID,0.392969,
2008-08-28, 01:22:05,VALID,1009.08,VALID,0,VALID,95.9091,VALID,0,VALID,24.0253,VALID,280,VALID,0.0136719,
2008-08-28, 01:23:05,VALID,1009.07,VALID,0,VALID,95.9244,VALID,0,VALID,24.0058,VALID,253,VALID,0.332422,
2008-08-28, 01:24:05,VALID,1009.04,VALID,0,VALID,95.9472,VALID,0,VALID,24.0253,VALID,236,VALID,0.332031,
2008-08-28, 01:25:05,VALID,1009.08,VALID,0,VALID,95.9244,VALID,0,VALID,24.0058,VALID,221,VALID,0.472656,
2008-08-28, 01:26:05,VALID,1009.05,VALID,0,VALID,95.932,VALID,0,VALID,24.0253,VALID,188,VALID,0.456641,
2008-08-28, 01:27:05,VALID,1009.07,VALID,0,VALID,95.9549,VALID,0,VALID,24.0253,VALID,183,VALID,0.409375,
2008-08-28, 01:28:05,VALID,1009.09,VALID,0,VALID,95.932,VALID,0,VALID,24.0448,VALID,180,VALID,0.397266,
2008-08-28, 01:29:05,VALID,1009.07,VALID,0,VALID,95.9244,VALID,0,VALID,24.0643,VALID,132,VALID,0.50625,
2008-08-28, 01:30:05,VALID,1009.07,VALID,0,VALID,95.932,VALID,0,VALID,24.0837,VALID,107,VALID,0.628125,
2008-08-28, 01:31:05,VALID,1009.09,VALID,0,VALID,95.9244,VALID,0,VALID,24.1032,VALID,99,VALID,0.617578,
2008-08-28, 01:32:05,VALID,1009.05,VALID,0,VALID,95.9167,VALID,0,VALID,24.1032,VALID,80,VALID,0.55625,
2008-08-28, 01:33:05,VALID,1009.05,VALID,0,VALID,95.9167,VALID,0,VALID,24.1051,VALID,75,VALID,0.562891,
2008-08-28, 01:34:05,VALID,1009.05,VALID,0,VALID,95.9244,VALID,0,VALID,24.0643,VALID,70,VALID,0.528516,
2008-08-28, 01:35:05,VALID,1009.02,VALID,0,VALID,95.9167,VALID,0,VALID,24.0058,VALID,50,VALID,0.602734,
2008-08-28, 01:36:05,VALID,1009,VALID,0,VALID,95.9091,VALID,0,VALID,23.9668,VALID,46,VALID,0.536719,
2008-08-28, 01:37:05,VALID,1008.96,VALID,0,VALID,95.9167,VALID,0,VALID,23.9473,VALID,52,VALID,0.400781,
2008-08-28, 01:38:05,VALID,1008.95,VALID,0,VALID,95.9244,VALID,0,VALID,23.9278,VALID,52,VALID,0.360938,
2008-08-28, 01:39:05,VALID,1008.93,VALID,0,VALID,95.9167,VALID,0,VALID,23.9084,VALID,47,VALID,0.840625,
2008-08-28, 01:40:05,VALID,1008.92,VALID,0,VALID,95.9015,VALID,0,VALID,23.8304,VALID,40,VALID,0.737109,
2008-08-28, 01:41:05,VALID,1008.92,VALID,0,VALID,95.9167,VALID,0,VALID,23.8304,VALID,43,VALID,0.540625,
2008-08-28, 01:42:05,VALID,1008.93,VALID,0,VALID,95.9015,VALID,0,VALID,23.7914,VALID,52,VALID,0.669531,
2008-08-28, 01:43:05,VALID,1008.92,VALID,0,VALID,95.9167,VALID,0,VALID,23.8109,VALID,53,VALID,0.682031,
2008-08-28, 01:44:05,VALID,1008.95,VALID,0,VALID,95.9167,VALID,0,VALID,23.733,VALID,29,VALID,0.651953,
2008-08-28, 01:45:05,VALID,1008.92,VALID,0,VALID,95.9396,VALID,0,VALID,23.7135,VALID,31,VALID,0.652734,
2008-08-28, 01:46:05,VALID,1008.94,VALID,0,VALID,95.9396,VALID,0.105969,VALID,23.7135,VALID,17,VALID,0.244531,
2008-08-28, 01:47:05,VALID,1008.93,VALID,0,VALID,95.9244,VALID,0.105969,VALID,23.7117,VALID,9,VALID,0.253516,
2008-08-28, 01:48:05,VALID,1008.89,VALID,0,VALID,95.9549,VALID,0,VALID,23.6922,VALID,9,VALID,0,
2008-08-28, 01:49:05,VALID,1008.89,VALID,0,VALID,95.9625,VALID,0,VALID,23.7135,VALID,9,VALID,0.133984,
2008-08-28, 01:50:05,VALID,1008.91,VALID,0,VALID,95.9396,VALID,0.105969,VALID,23.6727,VALID,9,VALID,0.310156,
2008-08-28, 01:51:05,VALID,1008.9,VALID,0,VALID,95.9549,VALID,0.105969,VALID,23.6532,VALID,9,VALID,0.0535156,
2008-08-28, 01:52:05,VALID,1008.91,VALID,0,VALID,95.9396,VALID,0.105969,VALID,23.6532,VALID,61,VALID,0.607031,
2008-08-28, 01:53:05,VALID,1008.92,VALID,0,VALID,95.9472,VALID,0.105969,VALID,23.655,VALID,61,VALID,0.308984,
2008-08-28, 01:54:05,VALID,1008.9,VALID,0,VALID,95.9472,VALID,0.105969,VALID,23.6143,VALID,61,VALID,0.132422,
2008-08-28, 01:55:05,VALID,1008.91,VALID,0,VALID,95.9777,VALID,0,VALID,23.6161,VALID,61,VALID,0.0453125,
2008-08-28, 01:56:05,VALID,1008.89,VALID,0,VALID,95.9625,VALID,0,VALID,23.5966,VALID,61,VALID,0,
2008-08-28, 01:57:04,VALID,1008.9,VALID,0,VALID,95.9549,VALID,0.105969,VALID,23.5948,VALID,61,VALID,0.301172,
2008-08-28, 01:58:04,VALID,1008.93,VALID,0,VALID,95.9777,VALID,0,VALID,23.6161,VALID,61,VALID,0.374219,
2008-08-28, 01:59:04,VALID,1008.9,VALID,0,VALID,95.9701,VALID,0,VALID,23.5753,VALID,61,VALID,0.201172,
2008-08-28, 02:00:04,VALID,1008.93,VALID,0,VALID,95.9777,VALID,0,VALID,23.5948,VALID,61,VALID,0.172266,
2008-08-28, 02:01:04,VALID,1008.93,VALID,0,VALID,95.9625,VALID,0,VALID,23.6161,VALID,61,VALID,0.175391,
2008-08-28, 02:02:04,VALID,1008.93,VALID,0,VALID,95.9625,VALID,0,VALID,23.6161,VALID,61,VALID,0.192188,
2008-08-28, 02:03:04,VALID,1008.91,VALID,0,VALID,95.9777,VALID,0,VALID,23.5966,VALID,61,VALID,0.217969,
2008-08-28, 02:04:04,VALID,1008.9,VALID,0,VALID,95.9777,VALID,0,VALID,23.5753,VALID,61,VALID,0.266016,
2008-08-28, 02:05:04,VALID,1008.9,VALID,0,VALID,95.9777,VALID,0.105969,VALID,23.5771,VALID,61,VALID,0.272656,
2008-08-28, 02:06:04,VALID,1008.88,VALID,0,VALID,95.9701,VALID,0.105969,VALID,23.5753,VALID,70,VALID,0.442969,
2008-08-28, 02:07:04,VALID,1008.86,VALID,0,VALID,95.9854,VALID,0,VALID,23.5948,VALID,84,VALID,0.477344,
2008-08-28, 02:08:04,VALID,1008.86,VALID,0,VALID,95.9701,VALID,0.105969,VALID,23.5948,VALID,85,VALID,0.425,
2008-08-28, 02:09:04,VALID,1008.84,VALID,0,VALID,96.0006,VALID,0.105969,VALID,23.5948,VALID,86,VALID,0.450391,
2008-08-28, 02:10:04,VALID,1008.85,VALID,0,VALID,95.993,VALID,0,VALID,23.655,VALID,86,VALID,0.337891,
2008-08-28, 02:11:04,VALID,1008.82,VALID,0,VALID,95.9777,VALID,0.105969,VALID,23.6143,VALID,87,VALID,0.420703,
2008-08-28, 02:12:04,VALID,1008.82,VALID,0,VALID,95.9777,VALID,0,VALID,23.655,VALID,87,VALID,0.307031,
2008-08-28, 02:13:04,VALID,1008.78,VALID,0,VALID,95.9777,VALID,0,VALID,23.6338,VALID,87,VALID,0.0382813,
2008-08-28, 02:14:04,VALID,1008.81,VALID,0,VALID,95.9549,VALID,0,VALID,23.6338,VALID,87,VALID,0,
2008-08-28, 02:15:04,VALID,1008.82,VALID,0,VALID,95.9701,VALID,0.105969,VALID,23.655,VALID,87,VALID,0,
2008-08-28, 02:16:04,VALID,1008.8,VALID,0,VALID,95.9625,VALID,0,VALID,23.6338,VALID,68,VALID,0.364844,
2008-08-28, 02:17:04,VALID,1008.78,VALID,0,VALID,95.9472,VALID,0.105969,VALID,23.6356,VALID,9,VALID,0.371875,
2008-08-28, 02:18:04,VALID,1008.76,VALID,0,VALID,95.9701,VALID,0,VALID,23.6161,VALID,9,VALID,0.387891,
2008-08-28, 02:19:04,VALID,1008.73,VALID,0,VALID,95.9625,VALID,0,VALID,23.5558,VALID,9,VALID,0.411719,
2008-08-28, 02:20:04,VALID,1008.75,VALID,0,VALID,95.9549,VALID,0.105969,VALID,23.5771,VALID,9,VALID,0.266406,
2008-08-28, 02:21:04,VALID,1008.74,VALID,0,VALID,95.9549,VALID,0,VALID,23.5576,VALID,9,VALID,0.0972656,
2008-08-28, 02:22:04,VALID,1008.75,VALID,0,VALID,95.9777,VALID,0.105969,VALID,23.5576,VALID,9,VALID,0,
2008-08-28, 02:23:04,VALID,1008.74,VALID,0,VALID,95.9701,VALID,0.105969,VALID,23.5169,VALID,9,VALID,0.000390625,
2008-08-28, 02:24:04,VALID,1008.77,VALID,0,VALID,95.9701,VALID,0.105969,VALID,23.5363,VALID,9,VALID,0.287109,
2008-08-28, 02:25:04,VALID,1008.78,VALID,0,VALID,95.9701,VALID,0,VALID,23.5363,VALID,38,VALID,0.382422,
2008-08-28, 02:26:04,VALID,1008.75,VALID,0,VALID,95.9854,VALID,0,VALID,23.5558,VALID,74,VALID,0.491406,
2008-08-28, 02:27:04,VALID,1008.75,VALID,0,VALID,95.9625,VALID,0,VALID,23.5576,VALID,83,VALID,0.292969,
2008-08-28, 02:28:04,VALID,1008.75,VALID,0,VALID,95.9854,VALID,0,VALID,23.5966,VALID,83,VALID,0.361328,
2008-08-28, 02:29:04,VALID,1008.72,VALID,0,VALID,95.9777,VALID,0,VALID,23.5948,VALID,83,VALID,0.24375,
2008-08-28, 02:30:04,VALID,1008.7,VALID,0,VALID,95.9625,VALID,0,VALID,23.6161,VALID,83,VALID,0.141406,
2008-08-28, 02:31:04,VALID,1008.69,VALID,0,VALID,95.9777,VALID,0,VALID,23.6338,VALID,96,VALID,0.302734,
2008-08-28, 02:32:04,VALID,1008.67,VALID,0,VALID,95.9701,VALID,0.105969,VALID,23.5948,VALID,96,VALID,0.282031,
2008-08-28, 02:33:04,VALID,1008.64,VALID,0,VALID,95.9701,VALID,0.105969,VALID,23.6143,VALID,96,VALID,0.120312,
2008-08-28, 02:34:04,VALID,1008.6,VALID,0,VALID,95.9777,VALID,0,VALID,23.6143,VALID,96,VALID,0.275,
2008-08-28, 02:35:04,VALID,1008.6,VALID,0,VALID,95.9777,VALID,0,VALID,23.6143,VALID,95,VALID,0.369531,
2008-08-28, 02:36:04,VALID,1008.59,VALID,0,VALID,95.9625,VALID,0.105969,VALID,23.5948,VALID,95,VALID,0.169922,
2008-08-28, 02:37:04,VALID,1008.56,VALID,0,VALID,95.9777,VALID,0.105969,VALID,23.5948,VALID,95,VALID,0.0476562,
2008-08-28, 02:38:04,VALID,1008.57,VALID,0,VALID,95.9777,VALID,0.105969,VALID,23.5948,VALID,95,VALID,0,
2008-08-28, 02:39:04,VALID,1008.55,VALID,0,VALID,95.9701,VALID,0,VALID,23.5753,VALID,95,VALID,0,
2008-08-28, 02:40:04,VALID,1008.55,VALID,0,VALID,95.9701,VALID,0,VALID,23.5948,VALID,95,VALID,0,
2008-08-28, 02:41:04,VALID,1008.53,VALID,0,VALID,95.9777,VALID,0,VALID,23.5753,VALID,95,VALID,0,
2008-08-28, 02:42:04,VALID,1008.54,VALID,0,VALID,95.9701,VALID,0,VALID,23.5948,VALID,149,VALID,0.58125,
2008-08-28, 02:43:04,VALID,1008.54,VALID,0,VALID,95.9701,VALID,0,VALID,23.6356,VALID,173,VALID,0.526563,
2008-08-28, 02:44:04,VALID,1008.54,VALID,0,VALID,95.9625,VALID,0.105969,VALID,23.6356,VALID,166,VALID,0.636719,
2008-08-28, 02:45:04,VALID,1008.53,VALID,0,VALID,95.9701,VALID,0,VALID,23.6143,VALID,149,VALID,0.665234,
2008-08-28, 02:46:04,VALID,1008.55,VALID,0,VALID,95.9701,VALID,0.105969,VALID,23.6143,VALID,149,VALID,0.399219,
2008-08-28, 02:47:04,VALID,1008.57,VALID,0,VALID,95.9701,VALID,0.105969,VALID,23.5948,VALID,149,VALID,0.307813,
2008-08-28, 02:48:04,VALID,1008.55,VALID,0,VALID,95.9777,VALID,0,VALID,23.6143,VALID,147,VALID,0.571875,
2008-08-28, 02:49:04,VALID,1008.55,VALID,0,VALID,95.9701,VALID,0.105969,VALID,23.6143,VALID,131,VALID,0.575391,
2008-08-28, 02:50:04,VALID,1008.57,VALID,0,VALID,95.9625,VALID,0,VALID,23.6143,VALID,131,VALID,0.370313,
2008-08-28, 02:51:04,VALID,1008.58,VALID,0,VALID,95.9625,VALID,0.105969,VALID,23.6143,VALID,131,VALID,0.226953,
2008-08-28, 02:52:04,VALID,1008.58,VALID,0,VALID,95.9854,VALID,0,VALID,23.6532,VALID,107,VALID,0.421094,
2008-08-28, 02:53:04,VALID,1008.58,VALID,0,VALID,95.9701,VALID,0.105969,VALID,23.5948,VALID,73,VALID,0.646094,
2008-08-28, 02:54:04,VALID,1008.55,VALID,0,VALID,95.9777,VALID,0,VALID,23.5948,VALID,43,VALID,0.529688,
2008-08-28, 02:55:04,VALID,1008.55,VALID,0,VALID,95.9701,VALID,0.105969,VALID,23.5966,VALID,45,VALID,0.445313,
2008-08-28, 02:56:04,VALID,1008.57,VALID,0,VALID,95.9549,VALID,0,VALID,23.5966,VALID,14,VALID,0.478906,
2008-08-28, 02:57:04,VALID,1008.57,VALID,0,VALID,95.9625,VALID,0,VALID,23.5576,VALID,349,VALID,0.4125,
2008-08-28, 02:58:04,VALID,1008.51,VALID,0,VALID,95.9549,VALID,0.105969,VALID,23.5363,VALID,343,VALID,0.454297,
2008-08-28, 02:59:04,VALID,1008.5,VALID,0,VALID,95.9701,VALID,0,VALID,23.5381,VALID,342,VALID,0.313281,
2008-08-28, 03:00:04,VALID,1008.47,VALID,0,VALID,95.9549,VALID,0.105969,VALID,23.5169,VALID,332,VALID,0.414063,
2008-08-28, 03:01:04,VALID,1008.48,VALID,0,VALID,95.9701,VALID,0.105969,VALID,23.5381,VALID,332,VALID,0.201172,
2008-08-28, 03:02:04,VALID,1008.45,VALID,0,VALID,95.9472,VALID,0.105969,VALID,23.5363,VALID,332,VALID,0.182422,
2008-08-28, 03:03:04,VALID,1008.45,VALID,0,VALID,95.9625,VALID,0.105969,VALID,23.5169,VALID,332,VALID,0,
2008-08-28, 03:04:04,VALID,1008.44,VALID,0,VALID,95.9549,VALID,0.105969,VALID,23.4974,VALID,332,VALID,0,
2008-08-28, 03:05:04,VALID,1008.44,VALID,0,VALID,95.9777,VALID,0,VALID,23.4992,VALID,332,VALID,0,
2008-08-28, 03:06:04,VALID,1008.45,VALID,0,VALID,95.9701,VALID,0,VALID,23.4779,VALID,332,VALID,0,
2008-08-28, 03:07:04,VALID,1008.46,VALID,0,VALID,95.9549,VALID,0,VALID,23.4584,VALID,332,VALID,0,
2008-08-28, 03:08:04,VALID,1008.45,VALID,0,VALID,95.9549,VALID,0.105969,VALID,23.4584,VALID,332,VALID,0.405078,
2008-08-28, 03:09:04,VALID,1008.43,VALID,0,VALID,95.9701,VALID,0,VALID,23.4389,VALID,332,VALID,0.365625,
2008-08-28, 03:10:04,VALID,1008.43,VALID,0,VALID,95.9549,VALID,0.105969,VALID,23.4194,VALID,332,VALID,0.246094,
2008-08-28, 03:11:04,VALID,1008.4,VALID,0,VALID,95.9625,VALID,0,VALID,23.4,VALID,332,VALID,0.0238281,
2008-08-28, 03:12:04,VALID,1008.4,VALID,0,VALID,95.9854,VALID,0.105969,VALID,23.3805,VALID,332,VALID,0,
2008-08-28, 03:13:04,VALID,1008.4,VALID,0,VALID,95.9854,VALID,0,VALID,23.3805,VALID,332,VALID,0,
2008-08-28, 03:14:04,VALID,1008.4,VALID,0,VALID,95.993,VALID,0.105969,VALID,23.361,VALID,332,VALID,0,
2008-08-28, 03:15:04,VALID,1008.36,VALID,0,VALID,95.9625,VALID,0.105969,VALID,23.3823,VALID,332,VALID,0,
2008-08-28, 03:16:04,VALID,1008.35,VALID,0,VALID,95.9854,VALID,0.105969,VALID,23.361,VALID,332,VALID,0,
2008-08-28, 03:17:04,VALID,1008.35,VALID,0,VALID,96.0006,VALID,0,VALID,23.3415,VALID,332,VALID,0,
2008-08-28, 03:18:04,VALID,1008.36,VALID,0,VALID,96.0006,VALID,0.105969,VALID,23.3415,VALID,332,VALID,0,
2008-08-28, 03:19:04,VALID,1008.35,VALID,0,VALID,96.0006,VALID,0.105969,VALID,23.361,VALID,332,VALID,0,
2008-08-28, 03:20:04,VALID,1008.36,VALID,0,VALID,95.993,VALID,0.105969,VALID,23.3415,VALID,332,VALID,0,
2008-08-28, 03:21:04,VALID,1008.36,VALID,0,VALID,96.0082,VALID,0.105969,VALID,23.3823,VALID,332,VALID,0,
2008-08-28, 03:22:04,VALID,1008.34,VALID,0,VALID,96.0082,VALID,0,VALID,23.3805,VALID,332,VALID,0.121484,
2008-08-28, 03:23:04,VALID,1008.35,VALID,0,VALID,95.993,VALID,0.105969,VALID,23.3805,VALID,332,VALID,0.209375,
2008-08-28, 03:24:04,VALID,1008.35,VALID,0,VALID,96.0006,VALID,0,VALID,23.3805,VALID,54,VALID,0.523438,
2008-08-28, 03:25:04,VALID,1008.37,VALID,0,VALID,96.0006,VALID,0,VALID,23.3805,VALID,54,VALID,0.416797,
2008-08-28, 03:26:04,VALID,1008.36,VALID,0,VALID,96.0006,VALID,0.105969,VALID,23.361,VALID,54,VALID,0.394141,
2008-08-28, 03:27:04,VALID,1008.38,VALID,0,VALID,96.0006,VALID,0.105969,VALID,23.361,VALID,54,VALID,0.429297,
2008-08-28, 03:28:04,VALID,1008.37,VALID,0,VALID,95.9854,VALID,0,VALID,23.361,VALID,54,VALID,0.338672,
2008-08-28, 03:29:04,VALID,1008.36,VALID,0,VALID,96.0006,VALID,0,VALID,23.3628,VALID,54,VALID,0.235547,
2008-08-28, 03:30:04,VALID,1008.35,VALID,0,VALID,96.0082,VALID,0.105969,VALID,23.3433,VALID,54,VALID,0.186328,
2008-08-28, 03:31:04,VALID,1008.37,VALID,0,VALID,96.0006,VALID,0,VALID,23.3433,VALID,55,VALID,0.385938,
2008-08-28, 03:32:04,VALID,1008.36,VALID,0,VALID,95.993,VALID,0,VALID,23.3433,VALID,80,VALID,0.341406,
2008-08-28, 03:33:04,VALID,1008.35,VALID,0,VALID,96.0082,VALID,0,VALID,23.3238,VALID,80,VALID,0.546094,
2008-08-28, 03:34:04,VALID,1008.35,VALID,0,VALID,96.0006,VALID,0.105969,VALID,23.322,VALID,63,VALID,0.653906,
2008-08-28, 03:35:04,VALID,1008.34,VALID,0,VALID,95.993,VALID,0,VALID,23.322,VALID,80,VALID,0.528125,
2008-08-28, 03:36:04,VALID,1008.31,VALID,0,VALID,96.0082,VALID,0.105969,VALID,23.361,VALID,97,VALID,0.596484,
2008-08-28, 03:37:04,VALID,1008.3,VALID,0,VALID,95.9854,VALID,0.105969,VALID,23.3628,VALID,93,VALID,0.394531,
2008-08-28, 03:38:04,VALID,1008.3,VALID,0,VALID,95.993,VALID,0.105969,VALID,23.3823,VALID,93,VALID,0.344141,
2008-08-28, 03:39:04,VALID,1008.28,VALID,0,VALID,96.0082,VALID,0.105969,VALID,23.4,VALID,93,VALID,0.477734,
2008-08-28, 03:40:04,VALID,1008.29,VALID,0,VALID,95.9854,VALID,0.105969,VALID,23.361,VALID,95,VALID,0.618359,
2008-08-28, 03:41:04,VALID,1008.31,VALID,0,VALID,96.0082,VALID,0,VALID,23.361,VALID,90,VALID,0.537109,
2008-08-28, 03:42:04,VALID,1008.29,VALID,0,VALID,96.0235,VALID,0,VALID,23.4017,VALID,85,VALID,0.405469,
2008-08-28, 03:43:04,VALID,1008.31,VALID,0,VALID,95.9854,VALID,0,VALID,23.4017,VALID,71,VALID,0.685547,
2008-08-28, 03:44:04,VALID,1008.28,VALID,0,VALID,95.9777,VALID,0,VALID,23.3415,VALID,46,VALID,0.521094,